Regional Weather Roundup
Issued by NWS

Home | Current Version | Previous Version | Text Only | Print | Product List | Glossary Off
Versions: 1 2 3 4 5 6 7 8 9 10 11 12 13 14 15 16 17 18 19 20 21 22 23 24 25 26 27 28 29 30 31 32 33 34 35 36 37 38 39 40 41 42 43 44 45 46 47 48 49 50

000
ASUS43 KMPX 230801
RWRMN
WEATHER ROUNDUP FOR MINNESOTA
NATIONAL WEATHER SERVICE TWIN CITIES/CHANHASSEN MN
300 AM CDT FRI JUN 23 2017


NOTE: "FAIR" INDICATES FEW OR NO CLOUDS BELOW 12,000 FEET WITH NO
SIGNIFICANT WEATHER AND/OR OBSTRUCTIONS TO VISIBILITY. N/A MEANS
CURRENT SKY AND/OR WEATHER CONDITIONS ARE NOT AVAILABLE.

MNZ060>063-068>070-230900-
   Twin Cities Metro

CITY           SKY/WX    TMP DP  RH WIND       PRES   REMARKS
TWIN CITIES    CLEAR     60  55  83 CALM      29.73F
ST PAUL        CLEAR     61  58  90 CALM      29.73S
CRYSTAL        CLEAR     59  51  75 W6        29.71S
BLAINE         CLEAR     61  57  88 SW6       29.72S
LAKEVILLE      CLEAR     59  55  88 W5        29.75S
EDEN PRAIRIE   CLEAR     58  55  90 SW7       29.73S
SOUTH ST PAUL  CLEAR     60  58  91 W5        29.73S
LAKE ELMO      FAIR      59  55  88 CALM      29.74R
$$
MNZ001>005-007-008-013>017-022>024-027-028-230900-
   Northwest Minnesota

CITY           SKY/WX    TMP DP  RH WIND       PRES   REMARKS
BEMIDJI        PTCLDY    53  45  72 W8        29.69R
HALLOCK        CLEAR     57  54  88 NW10      29.66R
ROSEAU           N/A     55  48  76 W8        29.63
WARROAD        PTCLDY    54  48  82 W10       29.62S
CROOKSTON      MOCLDY    55  48  76 W8        29.70S
FOSSTON        CLEAR     54  46  76 W9        29.71S
DETROIT LAKES  CLEAR     55  45  67 W12G18    29.75S
MOORHEAD       CLEAR     57  46  67 W12       29.75S
PARK RAPIDS    CLEAR     56  42  59 W8        29.71S
MAHNOMEN       FAIR      53  46  76 SW9       29.72S
$$
MNZ006-009>011-018-025>026-230900-
   North Central Minnesota

CITY           SKY/WX    TMP DP  RH WIND       PRES   REMARKS
BAUDETTE       CLOUDY    56  48  74 W13       29.60S
FLAG ISLAND    MOCLDY    55  52  88 W16       29.57S
INTL FALLS     MOCLDY    55  45  68 W7        29.59F
WASKISH        CLEAR     57  50  77 W18G26    29.64S
BIG FORK       CLEAR     54  43  66 W5        29.65R
LONGVILLE      CLEAR     55  45  67 W6        29.68S
GRAND RAPIDS   CLEAR     59  43  55 W8        29.68S
CRANE LAKE     PTCLDY    57  43  58 W5        29.61F
ORR            PTCLDY    55  41  58 W6        29.60S
COOK           PTCLDY    55  43  62 W5        29.63S
WALKER         FAIR      55  43  64 W12G22    29.69S
$$
MNZ012-019>021-037-230900-
   Northeast Minnesota

CITY           SKY/WX    TMP DP  RH WIND       PRES   REMARKS
DULUTH         MOCLDY    56  51  84 W12       29.64F
ELY            CLOUDY    55  43  62 W6        29.61S
HIBBING        CLEAR     51  44  77 SW5       29.64S
EVELETH        PTCLDY    53  41  63 W5        29.64S
DULUTH HARBOR  PTCLDY    57  55  94 SW10      29.64S
TWO HARBORS    MOCLDY    57  52  82 W6        29.61S
SILVER BAY     MOCLDY    46  46 100 CALM      29.60F
GRAND MARAIS     N/A     45  43  93 SW3       29.58F
G MARAIS ARPRT CLEAR     48  41  76 W3        29.61F
$$
MNZ029>031-032-039>041-046>048-054>057-064-230900-
   West Central Minnesota

CITY           SKY/WX    TMP DP  RH WIND       PRES   REMARKS
FERGUS FALLS   PTCLDY    55  46  71 NW12      29.75S
WHEATON        CLEAR     59  45  58 W13       29.81R
MORRIS         CLEAR     57  46  67 NW12      29.78R
ALEXANDRIA     CLEAR     59  44  57 W13       29.77R
ELBOW LAKE     FAIR      57  45  65 NW9       29.78R
WADENA         CLEAR     57  43  58 W9        29.72S
GLENWOOD       CLEAR     57  48  72 W12       29.76S
APPLETON       CLEAR     59  52  77 W7        29.78R
BENSON         CLEAR     59  50  72 NW13G20   29.79R
ORTONVILLE     CLEAR     61  46  59 NW10      29.80R
MADISON        CLEAR     61  55  82 W9        29.80R
WILLMAR        FAIR      61  55  82 W9        29.77S
$$
MNZ033>034-036-042>043-049>051-058-059-230900-
   Central Minnesota

CITY           SKY/WX    TMP DP  RH WIND       PRES   REMARKS
ST CLOUD       CLEAR     55  53  93 W7        29.72F
SAUK CENTRE    FAIR      57  51  80 W8        29.75R
PAYNESVILLE    CLEAR     53  53 100 W3        29.75S
AITKIN         CLEAR     55  45  67 W5        29.68R
PINE RIVER     CLEAR     55  43  62 W5        29.74S
BRAINERD       CLEAR     56  46  69 W7        29.71S
STAPLES        CLEAR     54  43  66 W7        29.72S
LONG PRAIRIE   FAIR      57  45  62 SW8       29.75S
LITTLE FALLS   CLEAR     57  48  72 W6        29.72S
LITCHFIELD     CLEAR     63  55  77 SW5       29.75F
BUFFALO        CLEAR     60  52  74 S5        29.74S
MAPLE LAKE     CLEAR     56  54  91 CALM      29.74S
HUTCHINSON     CLEAR     58  54  87 SW3       29.76F
$$
MNZ037-044-045-052-053-230900-
   East Central Minnesota

CITY           SKY/WX    TMP DP  RH WIND       PRES   REMARKS
PRINCETON      CLEAR     55  54  94 SW3       29.71F
MORA           CLEAR     55  50  82 W3        29.71F
CAMBRIDGE      CLEAR     61  50  67 SW3       29.69F
RUSH CITY      MOCLDY    57  52  82 SW5       29.70F
MOOSE LAKE     PTCLDY    55  52  88 W6        29.66S
HINCKLEY       FAIR      54  52  94 W6        29.69S
CLOQUET        CLEAR     57  48  72 W8        29.66S
MCGREGOR       CLEAR     59  46  63 W5        29.68S
$$
MNZ071>073-080-081-089-090-097-098-230900-
   Southwest Minnesota

CITY           SKY/WX    TMP DP  RH WIND       PRES   REMARKS
MONTEVIDEO     CLEAR     59  55  88 N5        29.79R
GRANITE FALLS  CLEAR     59  56  88 SW9       29.80S
CANBY          CLEAR     61  55  79 NW14      29.82R
MARSHALL       CLEAR     62  54  74 W14       29.80F
REDWOOD FALLS  CLEAR     60  54  80 W9        29.77S
OLIVIA         CLEAR     59  54  82 W8        29.76S
PIPESTONE      CLEAR     55  50  82 W6        29.84S
WINDOM         CLEAR     55  52  88 SW6       29.82S
WORTHINGTON    CLEAR     55  51  86 W7        29.84S
JACKSON        CLEAR     54  50  87 CALM      29.83S
TRACY          CLEAR     62  54  74 W8        29.81S
SLAYTON        CLEAR     59  48  67 W8        29.84F
$$
MNZ065>067-074>077-082>085-091>093-230900-
   South Central Minnesota

CITY           SKY/WX    TMP DP  RH WIND       PRES   REMARKS
MANKATO        CLEAR     57  54  89 SW5       29.78F
NEW ULM        CLEAR     55  52  88 W7        29.78S
ST JAMES       CLEAR     55  52  88 CALM      29.80S
FAIRMONT       CLEAR     57  53  86 CALM      29.80F
GLENCOE        CLEAR     59  56  89 SW5       29.75S
FARIBAULT      CLEAR     57  55  94 SW5       29.77S
OWATONNA       CLEAR     57  55  94 W3        29.77S
WASECA         CLEAR     54  52  94 W3        29.79S
ALBERT LEA     CLEAR     61  57  88 CALM      29.79R
$$
MNZ078>079-086>088-094>096-230900-
   Southeast Minnesota

CITY           SKY/WX    TMP DP  RH WIND       PRES   REMARKS
ROCHESTER      CLEAR     60  59  96 W7        29.77R FOG
RED WING       FOG       61  57  88 CALM      29.73S VSB 1/2
STANTON        CLEAR     58  56  92 SW6       29.74S
DODGE CENTER   CLEAR     61  55  82 W7        29.77R
WINONA         PTCLDY    61  61 100 CALM      29.74R
AUSTIN         CLEAR     61  57  88 W5        29.77R FOG
PRESTON        CLEAR     61  60  94 CALM      29.76S FOG
$$
ABBREVIATIONS USED IN REMARKS
   TC - TEMPERATURES IN CELSIUS
  WCI - WIND CHILL INDEX
   HX - HEAT INDEX
  VSB - VISIBILITY
$$




USA.gov is the U.S. government's official web portal to all federal, state and local government web resources and services.